Overview Statistics Trail Chart Weather Telemetry Raw packets
 

This is the latest recevied weather packets stored in our database for station/object W6MAF. If no packets are shown the sender has not sent any weather packets the latest 10 day(s).

<< 34 35 36 37 38 39 40 >>
Time Temp. Humidity Pressure Rain* Wind** Luminosity Snow
1788429004 13.89° C 41% - 0 mm 4.02 m/s, 219° - -
1788428707 13.89° C 40% - 0 mm 4.02 m/s, 233° - -
1788428408 13.89° C 40% - 0 mm 4.47 m/s, 249° - -
1788428107 13.89° C 40% - 0 mm 3.58 m/s, 214° - -
1788427809 13.89° C 40% - 0 mm 4.02 m/s, 229° - -
1788427512 13.89° C 39% - 0 mm 3.58 m/s, 214° - -
1788427246 14.44° C 39% - 0 mm 4.02 m/s, 218° - -
1788427214 14.44° C 39% - 0 mm 4.02 m/s, 218° - -
1788426916 14.44° C 39% - 0 mm 4.02 m/s, 238° - -
1788426618 14.44° C 38% - 0 mm 4.47 m/s, 249° - -
1788426317 14.44° C 38% - 0 mm 4.02 m/s, 217° - -
1788426020 14.44° C 37% - 0 mm 3.58 m/s, 221° - -
1788425722 14.44° C 37% - 0 mm 3.58 m/s, 201° - -
1788425424 14.44° C 37% - 0 mm 3.13 m/s, 242° - -
1788425127 14.44° C 36% - 0 mm 0 m/s - -
1788424829 14.44° C 36% - 0 mm 0.45 m/s, 228° - -
1788424528 14.44° C 36% - 0 mm 0 m/s - -
1788424230 14.44° C 35% - 0 mm 0.45 m/s, 198° - -
1788423933 14.44° C 35% - 0 mm 0 m/s - -
1788423637 14.44° C 34% - 0 mm 0.45 m/s, 273° - -
1788423635 14.44° C 34% - 0 mm 0 m/s - -
1788423337 14.44° C 34% - 0 mm 0.45 m/s, 273° - -
1788423101 14.44° C 34% - 0 mm 0 m/s - -
1788423039 14.44° C 34% - 0 mm 0 m/s - -
1788422738 14.44° C 34% - 0 mm 0.89 m/s, 226° - -

* Rain latest hour (hover to see other rain measurements)
** Current wind speed in m/s (hover to see current wind gust speed)